Tracking 35274 objects as of 12-Sep-2026
HD Live streaming from Space Station
objects crossing your sky now

APRIZESAT 5

Track APRIZESAT 5 now!
10-day predictions
APRIZESAT 5 is classified as:


NORAD ID: 37792
Int'l Code: 2011-044E
Launch date: August 17, 2011
Source: United States (US)
Launch site: Orenburg, Russia (OREN)

Uplink (MHz):
Downlink (MHz):
Beacon (MHz):
Mode:
Call sign:
Status:

Your satellite tracking list
Your tracking list is empty




NASA's NSSDC Master Catalog

Two Line Element Set (TLE):
1 37792U 11044E   26254.54675233  .00000678  00000-0  92454-4 0  9991
2 37792  98.2472 190.0481 0053437  84.6762 276.0543 14.81202836811574
Source of the keplerian elements: AFSPC